TimeCDT,TemperatureF,Dew PointF,Humidity,Sea Level PressureIn,VisibilityMPH,Wind Direction,Wind SpeedMPH,Gust SpeedMPH,PrecipitationIn,Events,Conditions,WindDirDegrees,DateUTC
12:15 AM,41.0,28.4,61,29.77,10.0,SSW,4.6,-,N/A,,Mostly Cloudy,210,2012-10-08 05:15:00
12:35 AM,39.2,28.4,65,29.76,10.0,SW,6.9,-,N/A,,Mostly Cloudy,230,2012-10-08 05:35:00
12:55 AM,41.0,30.2,65,29.76,10.0,SW,6.9,-,N/A,,Mostly Cloudy,230,2012-10-08 05:55:00
1:15 AM,46.4,32.0,57,29.75,10.0,WSW,8.1,-,N/A,,Mostly Cloudy,250,2012-10-08 06:15:00
1:35 AM,46.4,33.8,62,29.75,10.0,WSW,6.9,-,N/A,,Mostly Cloudy,250,2012-10-08 06:35:00
1:55 AM,46.4,35.6,66,29.74,10.0,WSW,8.1,-,N/A,,Mostly Cloudy,240,2012-10-08 06:55:00
2:15 AM,44.6,35.6,71,29.73,10.0,SW,5.8,-,N/A,,Mostly Cloudy,230,2012-10-08 07:15:00
2:35 AM,44.6,35.6,71,29.73,10.0,SW,4.6,-,N/A,,Mostly Cloudy,230,2012-10-08 07:35:00
2:55 AM,44.6,37.4,76,29.73,10.0,SW,3.5,-,N/A,,Scattered Clouds,230,2012-10-08 07:55:00
3:15 AM,42.8,37.4,81,29.71,10.0,SSW,4.6,-,N/A,,Mostly Cloudy,200,2012-10-08 08:15:00
3:35 AM,42.8,37.4,81,29.70,10.0,SSW,6.9,-,N/A,,Overcast,210,2012-10-08 08:35:00
3:55 AM,42.8,37.4,81,29.68,10.0,SSW,6.9,-,N/A,,Overcast,200,2012-10-08 08:55:00
4:15 AM,42.8,37.4,81,29.67,10.0,South,6.9,-,N/A,,Overcast,190,2012-10-08 09:15:00
4:35 AM,44.6,37.4,76,29.67,10.0,SSW,10.4,-,N/A,,Overcast,200,2012-10-08 09:35:00
4:55 AM,44.6,37.4,76,29.66,10.0,South,12.7,-,N/A,,Overcast,190,2012-10-08 09:55:00
5:15 AM,44.6,35.6,71,29.65,10.0,South,12.7,-,N/A,,Overcast,180,2012-10-08 10:15:00
5:35 AM,44.6,33.8,66,29.64,10.0,South,15.0,-,N/A,,Overcast,180,2012-10-08 10:35:00
5:55 AM,44.6,33.8,66,29.63,10.0,South,13.8,-,N/A,,Overcast,180,2012-10-08 10:55:00
6:15 AM,44.6,33.8,66,29.62,10.0,South,11.5,-,N/A,,Overcast,170,2012-10-08 11:15:00
6:35 AM,44.6,33.8,66,29.61,10.0,South,12.7,-,N/A,,Overcast,170,2012-10-08 11:35:00
6:55 AM,44.6,33.8,66,29.60,10.0,South,12.7,-,N/A,,Mostly Cloudy,170,2012-10-08 11:55:00
7:15 AM,44.6,32.0,61,29.58,10.0,South,13.8,-,N/A,,Mostly Cloudy,170,2012-10-08 12:15:00
7:35 AM,44.6,33.8,66,29.57,10.0,South,12.7,-,N/A,Rain,Light Rain,170,2012-10-08 12:35:00
7:55 AM,44.6,33.8,66,29.57,10.0,South,13.8,-,N/A,,Overcast,180,2012-10-08 12:55:00
8:15 AM,44.6,33.8,66,29.57,10.0,South,15.0,-,N/A,,Overcast,190,2012-10-08 13:15:00
8:35 AM,44.6,33.8,66,29.56,10.0,South,15.0,20.7,N/A,,Overcast,190,2012-10-08 13:35:00
8:55 AM,44.6,33.8,66,29.57,10.0,South,15.0,-,N/A,,Overcast,190,2012-10-08 13:55:00
9:15 AM,46.4,32.0,57,29.57,10.0,SW,8.1,-,N/A,,Overcast,220,2012-10-08 14:15:00
9:35 AM,46.4,32.0,57,29.56,10.0,South,11.5,-,N/A,,Overcast,190,2012-10-08 14:35:00
9:55 AM,48.2,33.8,58,29.56,10.0,SW,9.2,-,N/A,,Mostly Cloudy,220,2012-10-08 14:55:00
10:15 AM,50.0,35.6,58,29.56,10.0,WSW,10.4,-,N/A,,Mostly Cloudy,240,2012-10-08 15:15:00
10:35 AM,50.0,37.4,62,29.57,10.0,West,11.5,17.3,N/A,Rain,Light Rain,270,2012-10-08 15:35:00
10:55 AM,53.6,41.0,62,29.56,10.0,WNW,19.6,24.2,N/A,,Mostly Cloudy,290,2012-10-08 15:55:00
11:15 AM,53.6,41.0,62,29.57,10.0,WNW,24.2,31.1,N/A,,Scattered Clouds,300,2012-10-08 16:15:00
11:35 AM,55.4,41.0,58,29.57,10.0,WNW,23.0,33.4,N/A,,Clear,300,2012-10-08 16:35:00
11:55 AM,55.4,41.0,58,29.58,10.0,WNW,23.0,34.5,N/A,,Scattered Clouds,300,2012-10-08 16:55:00
12:15 PM,55.4,41.0,58,29.58,10.0,WNW,28.8,36.8,N/A,,Partly Cloudy,300,2012-10-08 17:15:00
12:55 PM,57.2,39.2,51,29.60,10.0,WNW,28.8,39.1,N/A,,Partly Cloudy,300,2012-10-08 17:55:00
1:15 PM,55.4,39.2,54,29.60,10.0,WNW,27.6,36.8,N/A,,Partly Cloudy,290,2012-10-08 18:15:00
1:35 PM,55.4,39.2,54,29.61,10.0,NW,27.6,35.7,N/A,,Mostly Cloudy,310,2012-10-08 18:35:00
1:55 PM,57.2,39.2,51,29.61,10.0,WNW,28.8,36.8,N/A,,Scattered Clouds,300,2012-10-08 18:55:00
2:15 PM,55.4,37.4,51,29.62,10.0,WNW,27.6,35.7,N/A,,Scattered Clouds,300,2012-10-08 19:15:00
2:35 PM,55.4,37.4,51,29.63,10.0,WNW,32.2,40.3,N/A,,Scattered Clouds,300,2012-10-08 19:35:00
2:55 PM,53.6,37.4,54,29.64,10.0,WNW,29.9,34.5,N/A,,Mostly Cloudy,300,2012-10-08 19:55:00
3:15 PM,53.6,37.4,54,29.65,10.0,WNW,23.0,33.4,N/A,,Mostly Cloudy,300,2012-10-08 20:15:00
3:35 PM,55.4,35.6,47,29.65,10.0,WNW,25.3,31.1,N/A,,Mostly Cloudy,300,2012-10-08 20:35:00
3:55 PM,55.4,35.6,47,29.66,10.0,WNW,18.4,28.8,N/A,,Mostly Cloudy,300,2012-10-08 20:55:00
4:15 PM,53.6,35.6,51,29.66,10.0,WNW,21.9,31.1,N/A,,Mostly Cloudy,290,2012-10-08 21:15:00
4:35 PM,53.6,35.6,51,29.67,10.0,WNW,19.6,25.3,N/A,,Overcast,300,2012-10-08 21:35:00
4:55 PM,55.4,35.6,47,29.66,10.0,West,19.6,26.5,N/A,,Scattered Clouds,280,2012-10-08 21:55:00
5:15 PM,55.4,33.8,44,29.67,10.0,WNW,19.6,26.5,N/A,,Mostly Cloudy,300,2012-10-08 22:15:00
5:35 PM,53.6,33.8,47,29.68,10.0,WNW,15.0,27.6,N/A,,Scattered Clouds,300,2012-10-08 22:35:00
5:55 PM,53.6,35.6,51,29.68,10.0,WNW,17.3,21.9,N/A,,Mostly Cloudy,300,2012-10-08 22:55:00
6:15 PM,53.6,33.8,47,29.68,10.0,WNW,16.1,25.3,N/A,,Overcast,290,2012-10-08 23:15:00
6:55 PM,51.8,32.0,47,29.70,10.0,WNW,11.5,-,N/A,,Mostly Cloudy,290,2012-10-08 23:55:00
7:35 PM,46.4,32.0,57,29.71,10.0,West,8.1,-,N/A,,Clear,270,2012-10-09 00:35:00
7:55 PM,44.6,32.0,61,29.72,10.0,West,6.9,-,N/A,,Clear,260,2012-10-09 00:55:00
8:15 PM,44.6,32.0,61,29.72,10.0,West,6.9,-,N/A,,Scattered Clouds,260,2012-10-09 01:15:00
8:35 PM,46.4,32.0,57,29.72,10.0,West,8.1,-,N/A,,Partly Cloudy,260,2012-10-09 01:35:00
8:55 PM,44.6,32.0,61,29.72,10.0,West,6.9,-,N/A,,Clear,270,2012-10-09 01:55:00
9:15 PM,44.6,32.0,61,29.73,10.0,West,9.2,-,N/A,,Clear,280,2012-10-09 02:15:00
9:35 PM,42.8,32.0,66,29.74,10.0,West,9.2,-,N/A,,Clear,280,2012-10-09 02:35:00
9:55 PM,42.8,32.0,66,29.74,10.0,West,10.4,-,N/A,,Clear,280,2012-10-09 02:55:00
10:15 PM,42.8,32.0,66,29.75,10.0,West,9.2,-,N/A,,Clear,280,2012-10-09 03:15:00
10:55 PM,41.0,32.0,70,29.75,10.0,West,9.2,-,N/A,,Clear,280,2012-10-09 03:55:00
11:35 PM,39.2,30.2,70,29.75,10.0,West,5.8,-,N/A,,Clear,270,2012-10-09 04:35:00
11:55 PM,39.2,30.2,70,29.75,10.0,West,8.1,-,N/A,,Clear,270,2012-10-09 04:55:00